Terug naar catalogus

STARLINK-37424

ActiefCommunicatieVLEO
NORAD 69192·PAYLOAD·🇺🇸 United States

Gelanceerd May 25, 2026 vanaf Cape Canaveral Space Force Station

Loading…

Volgende Passages (komende 24 uur)

TLE

VersSource: CelesTrak SupGP

Epoch: Sep 14, 2026, 21:22 UTC

1 69192C 26114L   26257.89076389 -.00057038  00000+0 -16851-2 0  2577
2 69192  53.1565 140.0500 0001210  81.0659 274.2633 15.34421641    16

Volg STARLINK-37424 in realtime met AllMySat

Download on the App Store